Weather Roundup
Issued by NWS

Home | Current Version | Previous Version | Graphics & Text | Print | Product List | Glossary Off
Versions: 1 2 3 4 5 6 7 8 9 10 11 12 13 14 15 16 17 18 19 20 21 22 23 24 25 26 27 28 29 30 31 32 33 34 35 36 37 38 39 40 41 42 43 44 45 46 47 48 49 50

000
NZUS93 KARX 291859
HRRWXR

CURRENT HOURLY OBSERVATIONS ACROSS
MUCH OF THE UPPER MISSISSIPPI VALLEY
NATIONAL WEATHER SERVICE LA CROSSE WI
200 PM CDT WED OCT 29 2014


...SOUTHEAST MINNESOTA...


CITY           SKY/WX    TMP DP  RH WIND       PRES   REMARKS
ROCHESTER      CLOUDY    42  31  64 W6        30.13F
ROCHESTER/MAYO CLOUDY    41  30  64 W5        30.13F
WINONA         CLOUDY    45  32  61 W3        30.13F
AUSTIN         CLOUDY    43  32  65 CALM      30.13F
ALBERT LEA     CLOUDY    41  30  65 NW6       30.15S
DODGE CENTER   CLOUDY    41  34  75 NW6       30.13F
PRESTON        PTSUNNY   40  32  70 W6        30.13F
OWATONNA       SUNNY     41  30  65 W6        30.14F
FARIBAULT      CLOUDY    43  32  65 W5        30.14F
$$

...ELSEWHERE IN MINNESOTA...


CITY           SKY/WX    TMP DP  RH WIND       PRES   REMARKS
MINNEAPOLIS    CLOUDY    41  31  67 NW7       30.14F
INTNL FALLS    CLOUDY    38  35  89 W8        30.05F WCI  32
DULUTH         CLOUDY    41  33  73 NW8       30.06F
RED WING       CLOUDY    45  28  53 NW7       30.13R
REDWOOD FALLS  MOSUNNY   44  31  60 W6        30.14F
MANKATO        CLOUDY    39  27  60 NW8       30.15F WCI  34
WORTHINGTON    SUNNY     46  30  53 SW6       30.14F
FAIRMONT       MOSUNNY   46  30  53 W6        30.15F
$$

...SOUTHWEST WISCONSIN...


CITY           SKY/WX    TMP DP  RH WIND       PRES   REMARKS
LA CROSSE      PTSUNNY   47  32  56 NW9       30.12F
PRAIRIE DU CHI PTSUNNY   45  30  55 W8        30.14S
BOSCOBEL       CLOUDY    48  32  53 NW8       30.13F
LONE ROCK      NOT AVBL
PLATTEVILLE    PTSUNNY   45  32  59 MISG      30.13S
FORT MC COY    CLOUDY    44  31  58 NW6       30.12S
VIROQUA        CLOUDY    43  32  64 NW9       30.11S
WIS DELLS      CLOUDY    45  31  57 NW6       30.09S
$$

...ELSEWHERE IN WISCONSIN...


CITY           SKY/WX    TMP DP  RH WIND       PRES   REMARKS
MILWAUKEE      PTSUNNY   48  31  51 NW17G24   30.06S
MADISON        PTSUNNY   47  32  56 NW9       30.09S
GREEN BAY      CLOUDY    48  35  60 NW10      30.03S
EAU CLAIRE     NOT AVBL
BLACK RVR FLS  CLOUDY    46  31  56 W9        30.11S
MEDFORD        CLOUDY    41  32  71 W12       30.06F
WAUSAU         CLOUDY    44  33  65 W8        30.05S
WIS RAPIDS     CLOUDY    47  32  56 NW10      30.09S
MARSHFIELD     CLOUDY    44  32  62 W14       30.08R
RICE LAKE      CLOUDY    40  32  72 NW7       30.12F
$$

...NORTHEAST IOWA...


CITY           SKY/WX    TMP DP  RH WIND       PRES   REMARKS
DECORAH        CLOUDY    43  32  65 VRB6      30.13S
MASON CITY     MOSUNNY   43  32  65 NW7       30.17F
CHARLES CITY   PTSUNNY   45  32  61 NW10G20   30.16S
OELWEIN        MOSUNNY   45  32  61 NW9G16    30.15F
$$

...ELSEWHERE IN IOWA...


CITY           SKY/WX    TMP DP  RH WIND       PRES   REMARKS
DES MOINES     MOSUNNY   52  34  50 NW8       30.18F
IOWA CITY      SUNNY     50  33  52 NW15      30.16F
FORT DODGE     SUNNY     50  34  53 NW5       30.16F
$$

...NORTHERN ILLINOIS...


CITY           SKY/WX    TMP DP  RH WIND       PRES   REMARKS
CHICAGO-OHARE  CLOUDY    46  32  58 W12       30.08R
CHICAGO-MIDWAY CLOUDY    48  32  53 W12G18    30.09R
MOLINE         MOSUNNY   50  31  48 W10       30.14S
ROCKFORD       CLOUDY    48  32  53 NW9G18    30.12S
PEORIA         CLOUDY    51  33  50 W12G18    30.14F
$$

NOTE: "FAIR" INDICATES FEW OR NO CLOUDS BELOW 12,000 FEET WITH NO
SIGNIFICANT WEATHER AND/OR OBSTRUCTIONS TO VISIBILITY. WIND
SPEEDS ARE IN MILES-PER-HOUR.



USA.gov is the U.S. government's official web portal to all federal, state and local government web resources and services.